Other Surface Observations
Issued by NWS Charleston, SC

Home | Current Version | Previous Version | Text Only | Print | Product List | Glossary On
Versions: 1 2 3 4 5 6 7 8 9 10 11 12 13 14 15 16 17 18 19 20 21 22 23 24 25 26 27 28 29 30 31 32 33 34 35 36 37 38 39 40 41 42 43 44 45 46 47 48 49 50
446
SXUS52 KCHS 281913
OSOCHS

MARINE OBSERVATIONS
NATIONAL WEATHER SERVICE CHARLESTON SC
300 PM EDT SUN AUG 28 2016

...DOWNTOWN CHARLESTON AND HARBOR...

CITY           SKY/WX    TMP DP  RH WIND       PRES   REMARKS
WATERFRONT PRK   N/A     86  76  72 VRB2      30.06F HX  96

...LAKE MOULTRIE...

CITY           SKY/WX    TMP DP  RH WIND       PRES   REMARKS
PINOPOLIS        N/A     86  75  70 NE9       30.02F HX  95

...LAKE AND SUPPLEMENTAL COASTAL OBSERVATIONS...

STATION/POSITION TIME  TEMP    WIND        PRES    WAVE   SWELL
                       AIR SEA DIR/SP/G            HT/PER HT/PER/DIR
                 (UTC) (F)     (DEG/KT/KT) (MB)    (FT/S) (FT/S/D)
FORT PULASKI     1800   84 86   70/ 16/ 17 1019.3F
SAPELO ISLAND    1800   89      70/ 12     1018.0S
WINYAH BAY       1745   84      60/ 10     1019.0
LAKE MURRAY      1800   89      50/  2/  8 1019.3F
ACE BASIN NERRS  NOT AVBL


...C-MAN AND BUOY OBSERVATIONS...

STATION/POSITION TIME  TEMP    WIND        PRES    WAVE   SWELL
                       AIR SEA DIR/SP/G            HT/PER HT/PER/DIR
                 (UTC) (F)     (DEG/KT/KT) (MB)    (FT/S) (FT/S/D)
BUOY 41004       1850   83 86   50/  8/ 10 1017.7F   3/ 9   3/130/ 9
BUOY 41008       1850   84 85   70/ 14/ 16 1017.6F   4/ 8   2/140/ 8
FOLLY BEACH CMAN 1900   85      60/ 13/ 14 1018.7F
CAPERS NS BUOY   1808   84 84   70/ 12/ 17 1018.7F
FRIPP NS BUOY    1808   84 86   80/ 14/ 17 1018.2F
5E ST. MARYS GA  1901      85                N/A     4/ 8


STATION/POSITION TIME  TEMP    WIND        PRES    WAVE   SWELL
                       AIR SEA DIR/SP/G            HT/PER HT/PER/DIR
                 (UTC) (F)     (DEG/KT/KT) (MB)    (FT/S) (FT/S/D)
FRYING PAN BUOY  1800   84 84   60/  8/ 10 1018.9F
BUOY 41025       1850   83 85   70/ 10/ 14 1019.4F   3/ 8   2/100/ 8
CAPE LOOKOUT NC  1900   83      40/ 11/ 12 1019.1F
BUOY 41002       1850   83 85   50/ 10/ 10 1017.0F   3/15   3/ 90/15
BUOY 41010       NOT AVBL
ST AUGUSTINE FL  1900   82 85   40/ 13/ 15 1017.0F

$$




USA.gov is the U.S. government's official web portal to all federal, state and local government web resources and services.